DELTA 1 DEB

Satellite information

Favourite Embed

Satellite Type and Status

DEBRISIN ORBIT

Key statistics

Satellite DELTA 1 DEB at a glance.

Uptime

17234

Days in orbit

Revolutions

≈ 14.2

Per day

Orbit

SSO

Sun Synchronous Orbit

Inclination

99.2

Latest

Satellite identification and parameters

Extended collection of information and parameters for DELTA 1 DEB.

Object identification

Identified? True

Debris? True

Object name: DELTA 1 DEB

International designator: 1978-026AA

Object number (NORAD): 12185

Object ID (CCSDS): 12185

Country: UNITED STATES OF AMERICA (US)

Current information (Y/N): Y

RCS size: SMALL

Orbital parameters

Period: 101.663 minutes

Inclination: 99.2126 deg

SMA: 7215.553 km

Apoapsis: 903.284 km

Periapsis: 771.551 km

RAAN: 101.8548 deg

Eccentricy: 0.0091284

Argument of periapsis: 353.3318 deg

Mean anomaly: 128.3849 deg

Mean motion: 14.16440623 rev/day

Mean motion (dot): 0.00001 rev/day2

B* drag term: 0.00050607 1/REarth

Two-line elements (TLE)

Creation date: May 11, 2025, 2:40 a.m.

Reference frame: TEME

Reference center: EARTH

Epoch: May 10, 2025, 5:41 p.m. UTC

TLE line 0: 0 DELTA 1 DEB

TLE line 1: 1 12185U 78026AA 25130.73706169 .00001000 00000-0 50607-3 0 9992

TLE line 2: 2 12185 99.2126 101.8548 0091284 353.3318 128.3849 14.16440623272349

Live tracking on map

Real-time ground track for satellite DELTA 1 DEB.

In-orbit conjunctions

A list of the most updated potential collisions computed for object DELTA 1 DEB.

Target Orbit TCA Probability of collision Miss distance Type
SL-8 R/B LEO 2025-01-08 01:10:21 0.0001034328 907.0 (m) ROCKET BODY
CZ-6A DEB SSO 2024-11-15 01:13:24 0.0001121043 185.0 (m) DEBRIS
SL-3 R/B LEO 2024-10-01 23:34:03 0.0001035031 517.0 (m) ROCKET BODY

Associated space launch

Earth observation satellite

DELTA 1 DEB was lifted into orbit during the mission ‘Delta 2910 | Landsat 3’, on board a Delta 2910 space rocket.

The launch took place on March 5, 1978, 5:54 p.m. from Space Launch Complex 2W.

For more information about the launch, click the button.

Launch to space Delta 2910 | Landsat 3
Delta 2910 | Landsat 3

Agency: N/A

Status: Launch Successful

Launch date: March 5, 1978, 5:54 p.m. UTC

Rocket: Delta 2910

Launch pad: Space Launch Complex 2W

Location: Vandenberg SFB, CA, USA

...

Latest news about this satellite

There are no fresh news available about this satellite. Check back as we update our databases every day.


Newsletter sign-up

Weekly statistics, charts and insights to help you stay on top of the space industry.